Volver al catálogo

ONEWEB-0693

ActivoComunicacionesPO
NORAD 61601·PAYLOAD·🇬🇧 United Kingdom

Lanzado Oct 20, 2024 desde Vandenberg Space Force Base

Loading…

Próximos Pases (próximas 24 horas)

TLE

ActualizadoSource: CelesTrak SupGP

Época: Sep 14, 2026, 17:56 UTC

1 61601C 24188H   26257.74772407  .00001419  00000+0  36578-2 0  2579
2 61601  87.9189 348.1023 0002538  90.8379  21.2732 13.17648761    15

Sigue ONEWEB-0693 en tiempo real con AllMySat

Download on the App Store